Voltar ao catálogo

FENGYUN 1C DEB

AtivoSSO
NORAD 31312·DEBRIS·🇨🇳 China

Lançado May 10, 1999 de Taiyuan Satellite Launch Center

Loading…

Próximas Passagens (próximas 24 horas)

TLE

AtualizadoSource: Space-Track

Época: Sep 14, 2026, 04:42 UTC

1 31312U 99025BPQ 26257.19632125  .00000351  00000-0  25867-3 0  9996
2 31312  98.8769 240.0839 0058592 188.7012 234.9282 14.01164144990038

Acompanhe FENGYUN 1C DEB em tempo real com AllMySat

Download on the App Store